GW3550 Weather Reports


time (UTC)temp
F
wind
direction
speed
knots
gust
knots
rain 1hr
in
rain 24hr
in
rain mn
in
humidity
%
barometer
mb
20260506001853 72 201 0.0 1.7 0.00 0.00 0.00 51 1015.1
20260506001351 73 245 0.0 0.9 0.00 0.00 0.00 50 1015.0
20260506000848 73 186 0.0 0.0 0.00 0.00 0.00 50 1014.8
20260506000346 73 196 0.0 0.0 0.00 0.00 0.00 50 1014.8
20260505235842 75 195 0.0 0.9 0.00 0.00 0.00 48 1014.8
20260505235340 76 176 0.0 0.0 0.00 0.00 0.00 47 1014.8
20260505234836 77 233 0.0 0.0 0.00 0.00 0.00 45 1014.8
20260505234335 77 162 1.7 1.7 0.00 0.00 0.00 44 1015.1
20260505233831 76 255 0.0 1.7 0.00 0.00 0.00 46 1014.9
20260505233329 76 208 0.0 0.0 0.00 0.00 0.00 45 1014.9
20260505232826 76 210 0.0 0.9 0.00 0.00 0.00 46 1014.8
20260505232324 75 359 0.0 2.6 0.00 0.00 0.00 45 1015.1
20260505231820 76 223 0.9 1.7 0.00 0.00 0.00 45 1014.9
20260505231318 76 224 0.9 2.6 0.00 0.00 0.00 45 1015.1
20260505230816 76 230 0.9 3.5 0.00 0.00 0.00 44 1015.1
20260505230313 75 204 1.7 6.1 0.00 0.00 0.00 44 1014.8
20260505225809 75 240 0.0 0.9 0.00 0.00 0.00 47 1015.0
20260505225307 76 224 0.9 0.9 0.00 0.00 0.00 46 1015.1
20260505224802 77 181 1.7 3.5 0.00 0.00 0.00 44 1014.9
20260505224300 78 51 0.9 3.5 0.00 0.00 0.00 44 1015.0
20260505223757 80 48 0.0 2.6 0.00 0.00 0.00 42 1015.2
20260505223254 79 220 0.0 0.9 0.00 0.00 0.00 43 1014.9
20260505222749 77 229 0.0 3.5 0.00 0.00 0.00 43 1014.6
20260505222246 78 231 0.0 1.7 0.00 0.00 0.00 45 1014.6
20260505221743 78 278 0.0 2.6 0.00 0.00 0.00 44 1014.9
20260505221240 79 183 0.0 1.7 0.00 0.00 0.00 43 1014.9
20260505220736 80 164 3.5 7.8 0.00 0.00 0.00 40 1014.8
20260505220234 80 258 0.0 3.5 0.00 0.00 0.00 42 1015.1
20260505215732 80 167 0.0 1.7 0.00 0.00 0.00 41 1014.8
20260505215229 80 209 1.7 2.6 0.00 0.00 0.00 39 1015.1
20260505214727 81 55 0.0 0.9 0.00 0.00 0.00 40 1015.1
20260505214224 81 182 1.7 2.6 0.00 0.00 0.00 39 1015.0
20260505213721 80 12 1.7 3.5 0.00 0.00 0.00 40 1015.0
20260505213218 80 203 0.9 2.6 0.00 0.00 0.00 38 1015.0
20260505212713 81 209 2.6 8.7 0.00 0.00 0.00 38 1015.0
20260505212206 80 217 0.9 3.5 0.00 0.00 0.00 42 1015.1
20260505211702 81 204 0.9 2.6 0.00 0.00 0.00 39 1015.2
20260505211200 82 183 1.7 5.2 0.00 0.00 0.00 38 1015.2
20260505210656 81 190 0.0 2.6 0.00 0.00 0.00 40 1015.1
20260505210153 80 222 1.7 2.6 0.00 0.00 0.00 39 1015.2
20260505205651 80 156 3.5 6.1 0.00 0.00 0.00 37 1015.4
20260505205149 81 215 1.7 6.1 0.00 0.00 0.00 39 1015.2
20260505204645 80 222 0.0 7.0 0.00 0.00 0.00 43 1015.2
20260505204143 81 99 1.7 2.6 0.00 0.00 0.00 39 1015.4
20260505203640 81 143 0.0 1.7 0.00 0.00 0.00 41 1015.5
20260505203137 81 239 0.9 6.1 0.00 0.00 0.00 40 1015.8
20260505202632 81 248 1.7 2.6 0.00 0.00 0.00 41 1015.7
20260505202128 82 262 0.0 6.1 0.00 0.00 0.00 39 1015.6
20260505201625 83 302 0.9 1.7 0.00 0.00 0.00 38 1015.7
20260505201117 82 347 0.9 2.6 0.00 0.00 0.00 39 1015.8
20260505200615 80 261 1.7 5.2 0.00 0.00 0.00 40 1015.7
20260505200111 78 176 0.9 2.6 0.00 0.00 0.00 43 1016.0
20260505195602 78 233 1.7 2.6 0.00 0.00 0.00 42 1015.9
20260505195100 79 218 0.9 5.2 0.00 0.00 0.00 43 1016.0
20260505194556 80 179 0.9 3.5 0.00 0.00 0.00 41 1015.8
20260505194052 79 206 0.0 2.6 0.00 0.00 0.00 43 1016.4
20260505193549 80 170 0.9 2.6 0.00 0.00 0.00 41 1016.2
20260505193046 81 201 2.6 5.2 0.00 0.00 0.00 39 1016.1
20260505192544 80 130 3.5 5.2 0.00 0.00 0.00 37 1016.1
20260505192041 81 218 0.9 6.1 0.00 0.00 0.00 37 1016.1
20260505191539 81 224 1.7 2.6 0.00 0.00 0.00 36 1016.4
20260505191037 81 186 2.6 3.5 0.00 0.00 0.00 38 1016.4
20260505190532 80 194 0.9 2.6 0.00 0.00 0.00 39 1016.2
20260505190029 82 243 0.9 3.5 0.00 0.00 0.00 40 1016.4
20260505185526 80 254 1.7 5.2 0.00 0.00 0.00 40 1016.3
20260505185022 81 157 5.2 8.7 0.00 0.00 0.00 38 1016.5
20260505184519 80 234 2.6 3.5 0.00 0.00 0.00 38 1016.6
20260505184015 81 281 1.7 7.8 0.00 0.00 0.00 36 1016.7
20260505183507 81 55 0.9 1.7 0.00 0.00 0.00 39 1016.8
20260505183004 81 168 2.6 3.5 0.00 0.00 0.00 38 1016.8
20260505182500 81 219 2.6 7.8 0.00 0.00 0.00 40 1017.1
20260505181956 81 230 0.0 3.5 0.00 0.00 0.00 39 1017.3
20260505181453 81 95 1.7 3.5 0.00 0.00 0.00 40 1016.9
20260505180950 81 213 2.6 5.2 0.00 0.00 0.00 38 1017.3
20260505180446 81 261 2.6 3.5 0.00 0.00 0.00 38 1017.3
20260505175943 80 246 2.6 6.1 0.00 0.00 0.00 39 1017.3
20260505175439 81 191 0.9 1.7 0.00 0.00 0.00 40 1017.3
20260505174936 80 250 0.9 3.5 0.00 0.00 0.00 41 1017.4
20260505174433 80 187 1.7 7.0 0.00 0.00 0.00 42 1017.5
20260505173929 80 246 1.7 6.1 0.00 0.00 0.00 41 1017.6
20260505173425 78 209 0.0 1.7 0.00 0.00 0.00 41 1017.8
20260505172923 81 176 5.2 11.3 0.00 0.00 0.00 37 1017.5
20260505172421 81 43 4.3 7.8 0.00 0.00 0.00 39 1017.7
20260505171920 80 83 0.9 5.2 0.00 0.00 0.00 39 1017.5
20260505171412 80 217 0.0 2.6 0.00 0.00 0.00 41 1017.4
20260505170909 80 194 2.6 5.2 0.00 0.00 0.00 37 1017.6
20260505170405 80 166 0.0 2.6 0.00 0.00 0.00 39 1017.6
20260505165900 81 253 1.7 5.2 0.00 0.00 0.00 40 1017.7
20260505165350 81 233 1.7 5.2 0.00 0.00 0.00 38 1017.8
20260505164846 81 39 0.9 2.6 0.00 0.00 0.00 39 1017.6
20260505164343 81 220 0.9 3.5 0.00 0.00 0.00 42 1017.9
20260505163842 78 192 0.0 6.1 0.00 0.00 0.00 41 1017.9
20260505163340 78 58 1.7 5.2 0.00 0.00 0.00 43 1017.6
20260505162838 78 208 0.0 6.1 0.00 0.00 0.00 45 1018.0
20260505162334 79 351 1.7 5.2 0.00 0.00 0.00 43 1017.9
20260505161831 76 197 3.5 5.2 0.00 0.00 0.00 42 1017.8
20260505161328 76 175 0.0 0.0 0.00 0.00 0.00 46 1018.0
20260505160825 79 199 0.9 3.5 0.00 0.00 0.00 43 1018.0
20260505160323 78 194 0.0 3.5 0.00 0.00 0.00 44 1017.9
20260505153301 76 223 0.0 1.7 0.00 0.00 0.00 51 1017.9
20260505152759 77 207 0.0 1.7 0.00 0.00 0.00 49 1017.9
20260505152255 75 298 0.0 2.6 0.00 0.00 0.00 53 1018.3
20260505151749 74 35 1.7 1.7 0.00 0.00 0.00 53 1018.4
20260505151247 74 73 1.7 3.5 0.00 0.00 0.00 53 1018.4
20260505150744 73 187 0.0 3.5 0.00 0.00 0.00 57 1018.1
20260505150241 74 189 2.6 2.6 0.00 0.00 0.00 52 1018.1
20260505140206 69 100 0.0 1.7 0.00 0.00 0.00 60 1018.3
20260505130130 60 41 0.9 1.7 0.00 0.00 0.00 73 1017.6
20260505124619 61 90 0.0 0.9 0.00 0.00 0.00 72 1017.6
20260505124116 60 90 0.0 0.9 0.00 0.00 0.00 71 1017.8
20260505123612 59 90 0.9 1.7 0.00 0.00 0.00 73 1017.6
20260505123108 61 26 0.9 1.7 0.00 0.00 0.00 69 1017.5
20260505122605 60 317 0.0 0.9 0.00 0.00 0.00 70 1017.5
20260505122102 58 240 0.9 0.9 0.00 0.00 0.00 75 1017.5
20260505121553 57 248 0.9 1.7 0.00 0.00 0.00 77 1017.5
20260505121050 57 252 1.7 1.7 0.00 0.00 0.00 77 1017.5
20260505120546 57 246 0.9 1.7 0.00 0.00 0.00 77 1017.1
20260505120042 57 235 0.0 0.0 0.00 0.00 0.00 78 1017.1
20260505115536 56 235 0.0 0.0 0.00 0.00 0.00 78 1017.3
20260505115034 55 228 0.0 0.9 0.00 0.00 0.00 78 1017.1
20260505114531 55 228 0.0 0.0 0.00 0.00 0.00 79 1017.1
20260505114027 54 228 0.0 0.9 0.00 0.00 0.00 80 1017.0
20260505113524 54 228 0.0 0.9 0.00 0.00 0.00 80 1016.9
20260505113020 54 228 0.0 0.0 0.00 0.00 0.00 78 1016.8
20260505112516 54 228 0.0 0.0 0.00 0.00 0.00 78 1016.6
20260505112014 53 229 0.0 0.0 0.00 0.00 0.00 79 1016.7
20260505111508 52 229 0.0 0.0 0.00 0.00 0.00 83 1017.0
20260505111005 50 229 0.0 0.0 0.00 0.00 0.00 83 1016.6
20260505110502 50 229 0.0 0.0 0.00 0.00 0.00 85 1016.8
20260505101933 50 229 0.0 0.0 0.00 0.00 0.00 84 1016.6
20260505101427 50 229 0.0 0.0 0.00 0.00 0.00 85 1016.7
20260505100923 50 229 0.0 0.0 0.00 0.00 0.00 85 1016.8
20260505100420 50 215 0.0 0.0 0.00 0.00 0.00 84 1016.6
20260505095915 50 223 0.0 0.0 0.00 0.00 0.00 83 1016.6
20260505095413 51 223 0.0 0.0 0.00 0.00 0.00 82 1016.3
20260505094909 52 216 0.0 0.0 0.00 0.00 0.00 81 1016.6
20260505094406 53 231 0.0 1.7 0.00 0.00 0.00 77 1016.4
20260505093901 51 218 0.0 0.9 0.00 0.00 0.00 83 1016.7
20260505093359 51 217 0.0 0.9 0.00 0.00 0.00 81 1016.5
20260505092856 51 225 0.0 0.9 0.00 0.00 0.00 85 1016.7
20260505092354 53 173 0.0 0.9 0.00 0.00 0.00 83 1016.4
20260505091851 54 231 0.0 0.9 0.00 0.00 0.00 72 1016.2
20260505091349 54 231 0.0 0.0 0.00 0.00 0.00 74 1016.4
20260505090847 53 212 0.0 0.0 0.00 0.00 0.00 74 1016.5
20260505090345 53 231 0.0 0.0 0.00 0.00 0.00 75 1016.7
20260505085842 52 231 0.0 0.0 0.00 0.00 0.00 76 1016.8
20260505085340 52 214 0.0 0.0 0.00 0.00 0.00 79 1016.5
20260505084837 51 220 0.0 0.0 0.00 0.00 0.00 82 1016.4
20260505084335 51 237 0.0 0.0 0.00 0.00 0.00 85 1016.5
20260505083832 51 235 0.0 0.0 0.00 0.00 0.00 85 1016.5
20260505083330 51 235 0.0 0.0 0.00 0.00 0.00 85 1016.8
20260505082826 51 236 0.0 0.9 0.00 0.00 0.00 84 1016.7
20260505082322 51 240 0.0 0.0 0.00 0.00 0.00 83 1016.5
20260505081819 52 235 0.0 0.0 0.00 0.00 0.00 82 1016.5
20260505081316 52 233 0.0 0.0 0.00 0.00 0.00 79 1016.6
20260505080813 53 233 0.0 0.0 0.00 0.00 0.00 78 1016.7
20260505080309 53 234 0.0 0.0 0.00 0.00 0.00 78 1016.7
20260505075804 53 233 0.0 0.0 0.00 0.00 0.00 77 1016.7
20260505075304 53 233 0.0 0.0 0.00 0.00 0.00 76 1016.5
20260505074759 53 232 0.0 0.0 0.00 0.00 0.00 77 1016.6
20260505074256 53 233 0.0 0.0 0.00 0.00 0.00 77 1016.4
20260505073753 53 235 0.0 0.0 0.00 0.00 0.00 78 1016.4
20260505073251 53 232 0.0 0.0 0.00 0.00 0.00 77 1016.3
20260505072747 53 251 0.0 0.0 0.00 0.00 0.00 77 1016.5
20260505072244 53 242 0.0 0.9 0.00 0.00 0.00 77 1016.6
20260505071739 54 233 0.0 0.0 0.00 0.00 0.00 77 1016.6
20260505071236 54 230 0.0 0.0 0.00 0.00 0.00 74 1016.5
20260505070734 54 235 0.0 0.9 0.00 0.00 0.00 73 1016.3
20260505070230 55 239 0.0 0.0 0.00 0.00 0.00 73 1016.5
20260505065726 55 235 0.0 0.0 0.00 0.00 0.00 72 1016.4
20260505065223 57 233 0.0 0.0 0.00 0.00 0.00 70 1016.5
20260505064720 57 215 0.0 0.0 0.00 0.00 0.00 67 1016.5
20260505064218 57 194 0.0 0.0 0.00 0.00 0.00 66 1016.4
20260505063715 57 200 0.0 0.9 0.00 0.00 0.00 65 1016.4
20260505063211 58 221 0.0 0.0 0.00 0.00 0.00 64 1016.6
20260505062707 58 219 0.0 0.0 0.00 0.00 0.00 64 1016.5
20260505062206 59 236 0.0 0.9 0.00 0.00 0.00 64 1016.8
20260505061702 59 237 0.0 0.0 0.00 0.00 0.00 63 1016.6
20260505061200 59 214 0.9 0.9 0.00 0.00 0.00 63 1016.7
20260505060657 59 227 0.0 0.0 0.00 0.00 0.00 63 1016.8
20260505060154 59 212 0.9 0.9 0.00 0.00 0.00 63 1016.7
20260505055649 59 245 0.0 0.0 0.00 0.00 0.00 63 1017.0
20260505055146 59 233 0.0 0.9 0.00 0.00 0.00 62 1016.8
20260505054643 60 239 0.0 0.9 0.00 0.00 0.00 61 1016.8
20260505054141 60 232 0.0 1.7 0.00 0.00 0.00 61 1016.7
20260505053639 60 214 0.9 1.7 0.00 0.00 0.00 61 1016.9
20260505053134 59 214 0.0 0.0 0.00 0.00 0.00 62 1016.8
20260505052632 59 231 0.0 1.7 0.00 0.00 0.00 62 1016.8
20260505052129 60 220 0.9 0.9 0.00 0.00 0.00 61 1016.8
20260505051626 59 218 0.0 1.7 0.00 0.00 0.00 61 1016.7
20260505051124 59 228 0.0 0.0 0.00 0.00 0.00 63 1016.8
20260505050621 59 220 0.0 0.9 0.00 0.00 0.00 63 1016.6
20260505050120 58 221 0.9 0.9 0.00 0.00 0.00 64 1016.7
20260505041549 60 221 0.0 0.0 0.00 0.00 0.00 62 1017.0
20260505041047 61 224 0.0 0.0 0.00 0.00 0.00 61 1016.9
20260505040544 61 225 0.0 0.0 0.00 0.00 0.00 60 1017.0
20260505040041 61 185 0.0 0.9 0.00 0.00 0.00 60 1016.9
20260505035537 61 204 0.0 0.0 0.00 0.00 0.00 61 1016.8
20260505035034 61 231 0.0 0.0 0.00 0.00 0.00 61 1016.9
20260505034530 61 225 0.0 0.9 0.00 0.00 0.00 61 1016.9
20260505034027 61 210 0.0 0.0 0.00 0.00 0.00 61 1016.9
20260505033525 61 215 0.0 0.0 0.00 0.00 0.00 61 1016.8
20260505033023 61 214 0.0 0.9 0.00 0.00 0.00 61 1016.9
20260505032520 62 226 0.0 0.0 0.00 0.00 0.00 60 1017.1
20260505032016 62 224 0.0 0.9 0.00 0.00 0.00 60 1017.3
20260505031514 62 208 0.0 1.7 0.00 0.00 0.00 59 1017.3
20260505031010 63 219 0.0 0.9 0.00 0.00 0.00 59 1016.9
20260505030507 62 192 0.0 2.6 0.00 0.00 0.00 60 1016.9
20260505030002 62 221 0.0 0.9 0.00 0.00 0.00 60 1017.0
20260505025459 62 221 0.0 0.0 0.00 0.00 0.00 60 1016.8
20260505024958 63 220 0.0 0.0 0.00 0.00 0.00 59 1016.9
20260505024454 63 221 0.0 0.0 0.00 0.00 0.00 58 1016.9
20260505023951 63 220 0.0 0.0 0.00 0.00 0.00 58 1016.8
20260505023448 63 200 0.0 0.0 0.00 0.00 0.00 58 1016.9
20260505022946 63 207 0.0 0.9 0.00 0.00 0.00 57 1016.7
20260505022443 64 229 0.0 0.9 0.00 0.00 0.00 56 1017.0
20260505021941 63 231 0.0 0.9 0.00 0.00 0.00 57 1017.0
20260505021437 63 194 0.0 0.9 0.00 0.00 0.00 57 1016.7
20260505020932 63 223 0.0 0.0 0.00 0.00 0.00 57 1016.7
20260505020428 63 223 0.0 0.0 0.00 0.00 0.00 56 1017.0
20260505015925 63 230 0.0 0.0 0.00 0.00 0.00 56 1016.8
20260505015422 64 212 0.0 0.0 0.00 0.00 0.00 55 1016.6
20260505014920 64 222 0.0 0.0 0.00 0.00 0.00 55 1016.5
20260505014416 64 226 0.9 0.9 0.00 0.00 0.00 54 1016.5
20260505013913 64 223 0.0 0.0 0.00 0.00 0.00 54 1016.6
20260505013410 65 225 0.0 0.0 0.00 0.00 0.00 53 1016.5
20260505012909 65 224 0.0 0.0 0.00 0.00 0.00 53 1016.4
20260505012406 66 225 0.0 0.0 0.00 0.00 0.00 52 1016.3
20260505011902 66 218 0.0 0.9 0.00 0.00 0.00 51 1016.4
20260505011359 67 220 0.0 0.0 0.00 0.00 0.00 50 1016.3
20260505010855 67 210 0.0 0.9 0.00 0.00 0.00 49 1016.2
20260505010351 67 183 0.9 0.9 0.00 0.00 0.00 49 1016.0
20260505005847 68 222 0.0 1.7 0.00 0.00 0.00 48 1016.1
20260505005344 68 192 0.0 1.7 0.00 0.00 0.00 48 1016.0
20260505004842 67 221 0.0 0.9 0.00 0.00 0.00 49 1016.2
20260505004338 67 214 0.0 0.0 0.00 0.00 0.00 49 1016.2
20260505003835 67 223 0.0 0.0 0.00 0.00 0.00 49 1016.0
20260505003332 68 220 0.0 0.0 0.00 0.00 0.00 48 1016.0
20260505002828 68 222 0.0 0.0 0.00 0.00 0.00 48 1015.9
20260505002325 68 221 0.0 0.0 0.00 0.00 0.00 47 1015.8